Date,TemperatureHighF,TemperatureAvgF,TemperatureLowF,DewpointHighF,DewpointAvgF,DewpointLowF,HumidityHigh,HumidityAvg,HumidityLow,PressureMaxIn,PressureMinIn,WindSpeedMaxMPH,WindSpeedAvgMPH,GustSpeedMaxMPH,PrecipitationSumIn
2012-1-1,78.0,64.7,54.0,62.6,58.2,52.6,96,82,48,30.27,30.16,8,0,8,0.00
2012-1-2,67.0,60.9,56.0,64.5,52.9,40.4,95,76,52,30.24,30.09,15,2,15,0.04
2012-1-3,59.0,49.9,41.0,43.3,33.6,25.6,65,54,43,30.40,30.20,20,3,20,0.00
2012-1-4,58.0,45.0,35.0,35.6,25.4,14.9,85,49,21,30.45,30.31,10,1,10,0.00
2012-1-5,68.0,50.7,34.0,53.0,44.3,31.9,94,80,55,30.34,30.20,10,1,12,0.00
2012-1-6,73.0,57.2,45.0,59.6,51.9,43.4,96,84,56,30.24,30.13,10,0,10,0.00
2012-1-7,73.0,61.3,53.0,60.4,55.9,50.0,95,84,60,30.19,30.11,9,0,9,0.00
2012-1-8,77.0,61.7,50.0,59.1,54.0,48.3,96,78,45,30.24,30.14,8,1,8,0.01
2012-1-9,79.0,64.7,55.0,63.4,57.8,51.8,94,80,55,30.21,30.08,14,1,14,0.00
2012-1-10,78.0,65.4,55.0,64.0,59.1,53.3,95,82,53,30.10,29.94,17,1,17,0.01
2012-1-11,72.0,65.7,59.0,67.6,62.4,57.0,95,89,82,29.97,29.80,16,2,16,0.03
2012-1-12,75.0,67.0,57.0,65.9,61.3,55.0,95,83,65,29.97,29.84,14,2,14,0.01
2012-1-13,68.0,59.1,52.0,64.3,49.1,43.7,89,70,53,30.24,29.97,12,2,14,0.00
2012-1-14,58.0,52.3,43.0,49.2,37.7,28.1,82,60,34,30.38,30.22,16,2,16,0.00
2012-1-15,68.0,52.2,36.0,51.2,42.4,33.6,94,72,37,30.46,30.34,14,1,14,0.00
2012-1-16,73.0,60.4,47.0,53.6,48.7,41.3,85,67,48,30.45,30.29,15,2,18,0.00
2012-1-17,75.0,62.4,52.0,59.7,54.6,48.9,92,77,57,30.33,30.15,13,1,15,0.00
2012-1-18,75.0,62.8,53.0,64.5,59.2,50.3,95,89,69,30.16,30.01,11,1,12,0.27
2012-1-19,72.0,60.2,52.0,59.6,46.7,36.2,94,66,28,30.18,30.03,12,1,12,0.01
2012-1-20,77.0,60.8,50.0,58.9,51.2,40.0,92,72,41,30.19,30.10,14,1,14,0.00
2012-1-21,75.0,63.9,52.0,62.0,57.4,50.0,94,81,60,30.14,30.04,15,1,15,0.00
2012-1-22,77.0,63.8,55.0,65.9,58.9,53.3,94,85,66,30.13,30.06,7,0,7,0.00
2012-1-23,78.0,67.0,57.0,68.2,62.3,55.0,94,86,70,30.15,30.05,12,1,13,0.00
2012-1-24,80.0,69.0,60.0,67.6,63.0,58.3,95,83,62,30.17,30.08,9,1,9,0.02
2012-1-25,83.0,70.4,62.0,68.7,63.9,60.2,95,81,54,30.15,30.06,16,2,17,0.00
2012-1-26,80.0,70.4,63.0,68.9,65.4,60.9,94,85,66,30.09,29.95,19,2,23,0.00
2012-1-27,72.0,66.9,61.0,67.6,63.4,57.1,95,89,76,30.08,29.92,16,2,16,0.64
2012-1-28,70.0,62.8,55.0,60.3,56.5,53.0,95,81,64,30.19,30.07,10,1,10,0.00
2012-1-29,73.0,63.9,56.0,56.4,52.9,47.2,89,70,41,30.30,30.17,13,1,13,0.00
2012-1-30,75.0,62.6,52.0,54.1,49.8,44.4,88,65,42,30.36,30.24,16,3,18,0.00
2012-1-31,80.0,66.8,57.0,58.7,54.0,49.2,84,66,38,30.33,30.19,22,2,22,0.00
2012-2-1,79.0,67.5,59.0,64.8,60.0,54.5,92,78,59,30.25,30.13,11,2,11,0.00
2012-2-2,80.0,68.5,59.0,66.5,61.0,56.4,93,78,53,30.17,30.07,8,0,9,0.00
2012-2-3,75.0,69.5,64.0,65.5,62.7,60.7,92,79,65,30.21,30.12,15,2,16,0.00
2012-2-4,82.0,70.8,63.0,66.8,63.6,60.3,91,79,54,30.16,30.03,18,2,18,0.00
2012-2-5,80.0,71.3,65.0,69.8,66.1,62.6,94,84,67,30.07,29.98,10,1,10,0.00
2012-2-6,84.0,71.0,66.0,71.5,66.5,64.2,95,87,61,30.07,29.96,12,1,12,0.72
2012-2-7,76.0,68.8,65.0,69.5,65.6,63.0,95,90,79,30.07,29.98,9,1,11,0.00
2012-2-8,75.0,66.3,60.0,63.6,58.6,54.9,92,77,53,30.12,30.01,8,1,13,0.00
2012-2-9,74.0,65.4,58.0,59.7,56.1,51.2,87,73,57,30.16,30.04,14,2,14,0.00
2012-2-10,78.0,67.2,59.0,69.0,62.5,55.7,94,85,71,30.11,29.90,11,1,12,0.30
2012-2-11,66.0,60.2,54.0,62.5,52.8,39.5,95,77,58,30.16,29.88,17,3,17,0.04
2012-2-12,54.0,45.9,37.0,40.8,26.4,19.6,69,47,33,30.36,30.15,19,2,19,0.00
2012-2-13,68.0,50.5,38.0,49.3,37.5,24.7,88,63,38,30.29,30.11,10,1,10,0.00
2012-2-14,76.0,62.3,48.0,62.3,55.1,45.5,92,79,58,30.13,30.04,14,1,15,0.00
2012-2-15,78.0,68.6,60.0,64.8,61.8,58.0,94,80,61,30.19,30.09,13,1,13,0.00
2012-2-16,78.0,68.9,60.0,68.6,63.8,58.0,94,85,71,30.17,30.06,14,1,14,0.00
2012-2-17,75.0,68.9,66.0,68.4,65.9,63.6,94,90,79,30.07,29.99,10,1,10,0.00
2012-2-18,79.0,69.7,63.0,69.5,65.9,61.5,96,88,70,30.01,29.88,12,1,14,0.00
2012-2-19,76.0,70.2,64.0,72.2,66.7,56.3,95,89,76,29.96,29.83,19,4,19,0.01
2012-2-20,73.0,64.9,57.0,58.3,52.9,48.5,81,66,46,30.19,29.95,17,2,17,0.00
2012-2-21,78.0,65.5,53.0,62.5,57.4,49.9,92,77,56,30.22,30.10,13,2,13,0.00
2012-2-22,77.0,68.3,61.0,68.4,64.1,58.3,93,87,73,30.11,29.93,15,2,17,0.00
2012-2-23,79.0,72.2,69.0,72.0,69.0,66.9,95,90,79,29.98,29.89,17,3,17,0.00
2012-2-24,81.0,73.0,68.0,73.5,69.6,66.5,96,90,74,30.02,29.91,17,3,18,0.00
2012-2-25,74.0,67.9,62.0,70.2,50.9,39.2,94,58,32,30.22,30.00,16,2,16,0.04
2012-2-26,75.0,65.8,59.0,64.0,54.2,38.9,90,67,44,30.27,30.17,19,5,21,0.00
2012-2-27,84.0,74.1,67.0,71.1,67.6,64.0,92,81,62,30.27,30.18,15,2,15,0.00
2012-2-28,85.0,73.3,67.0,71.8,67.7,64.6,95,84,59,30.25,30.15,11,2,11,0.00
2012-2-29,83.0,72.4,66.0,71.7,67.2,63.9,95,85,64,30.21,30.09,13,2,15,0.00
2012-3-1,81.0,71.6,64.0,71.7,67.4,62.2,96,87,69,30.11,30.01,12,1,13,0.01
2012-3-2,82.0,73.1,66.0,73.3,69.2,64.2,96,88,72,30.04,29.93,15,2,15,0.00
2012-3-3,81.0,75.8,72.0,74.6,71.6,68.9,93,87,78,29.93,29.80,21,4,21,0.00
2012-3-4,75.0,64.7,56.0,72.5,50.5,36.6,93,63,34,30.23,29.71,17,4,25,0.02
2012-3-5,65.0,59.2,56.0,53.1,46.2,38.1,78,63,51,30.34,30.22,3,0,8,0.00
2012-3-6,80.0,65.5,52.0,57.8,53.4,47.6,90,68,40,30.38,30.28,22,3,23,0.00
2012-3-7,83.0,70.6,62.0,63.5,59.0,55.7,87,69,45,30.36,30.22,21,4,21,0.00
2012-3-8,86.0,73.1,63.0,68.9,64.5,60.3,93,76,46,30.26,30.12,17,3,17,0.00
2012-3-9,83.0,72.9,65.0,70.4,67.1,62.6,94,83,63,30.20,30.09,12,2,13,0.00
2012-3-10,84.0,71.8,64.0,69.5,65.5,61.9,94,82,58,30.20,30.10,16,2,17,0.00
2012-3-11,86.0,71.8,67.0,71.1,66.4,64.0,93,84,53,30.26,30.15,17,3,17,0.67
2012-3-12,83.0,72.8,65.0,69.6,64.0,59.4,91,75,51,30.26,30.16,17,3,21,0.05
2012-3-13,84.0,70.8,63.0,66.5,62.3,58.6,90,76,47,30.24,30.13,13,2,13,0.00
2012-3-14,84.0,72.2,60.0,67.6,63.1,57.0,93,75,51,30.23,30.11,11,1,11,0.00
2012-3-15,86.0,73.7,62.0,67.6,63.3,59.3,93,72,47,30.23,30.10,15,2,15,0.00
2012-3-16,86.0,73.4,64.0,69.0,64.1,60.0,93,74,49,30.22,30.10,13,2,14,0.00
2012-3-17,86.0,73.2,62.0,67.4,61.4,55.0,92,69,36,30.22,30.09,14,2,15,0.00
2012-3-18,86.0,72.0,61.0,68.6,61.9,56.1,90,73,40,30.24,30.09,16,2,16,0.00
2012-3-19,86.0,72.6,63.0,66.9,62.4,55.7,91,72,37,30.17,30.04,15,2,15,0.00
2012-3-20,86.0,72.4,63.0,68.1,63.4,58.8,89,74,47,30.09,29.99,16,2,17,0.00
2012-3-21,85.0,73.0,64.0,71.8,66.3,61.0,94,81,55,30.13,29.99,17,3,18,0.18
2012-3-22,86.0,74.6,67.0,72.3,68.5,64.6,94,82,62,30.14,30.04,18,2,18,0.32
2012-3-23,82.0,74.7,68.0,71.1,68.3,64.3,91,81,67,30.11,30.00,14,2,14,0.00
2012-3-24,81.0,73.8,68.0,71.1,68.3,65.9,94,83,65,30.04,29.92,14,2,16,0.00
2012-3-25,80.0,73.2,68.0,69.9,65.1,56.8,94,77,54,29.94,29.85,15,3,16,0.22
2012-3-26,82.0,73.1,62.0,66.2,59.9,53.4,92,65,41,30.02,29.89,14,2,15,0.00
2012-3-27,85.0,74.2,59.0,63.4,57.8,50.1,93,60,38,30.16,30.00,14,2,15,0.00
2012-3-28,86.0,73.5,63.0,66.3,62.1,55.4,88,69,39,30.17,30.03,16,2,18,0.00
2012-3-29,83.0,73.2,65.0,68.3,65.3,62.0,91,77,56,30.07,29.97,11,1,11,0.01
2012-3-30,84.0,73.4,66.0,68.2,65.4,63.3,93,77,56,30.05,29.97,14,2,16,0.00
2012-3-31,82.0,73.6,68.0,73.7,68.5,64.6,92,84,73,29.99,29.89,15,2,16,0.00
2012-4-1,81.0,73.3,65.0,70.2,67.0,62.3,94,81,65,29.96,29.87,9,2,15,0.11
2012-4-2,84.0,72.9,63.0,71.8,66.3,60.9,95,81,58,29.93,29.83,12,1,12,0.00
2012-4-3,89.0,74.6,64.0,70.0,65.5,60.3,94,76,41,29.98,29.89,10,1,10,0.00
2012-4-4,84.0,74.3,63.0,73.8,68.5,60.3,93,83,69,29.97,29.81,21,2,24,0.05
2012-4-5,83.0,74.3,67.0,71.5,67.7,64.9,95,81,59,29.89,29.71,16,2,16,0.19
2012-4-6,83.0,76.0,69.0,71.3,66.0,58.5,85,72,48,29.95,29.74,16,4,19,0.00
2012-4-7,83.0,71.6,61.0,63.4,58.3,53.9,84,65,43,30.13,29.94,16,3,18,0.00
2012-4-8,84.0,70.8,61.0,60.9,56.7,51.6,78,63,38,30.17,30.05,14,2,14,0.00
2012-4-9,84.0,72.2,61.0,65.1,60.9,55.8,85,69,41,30.09,29.98,10,2,13,0.00
2012-4-10,84.0,72.7,62.0,64.7,61.4,57.0,91,71,44,30.08,29.97,11,1,11,0.00
2012-4-11,71.0,68.4,64.0,64.9,63.0,60.4,89,83,78,30.03,29.99,3,0,5,0.00
2012-4-16,78.0,75.1,74.0,65.5,63.1,61.9,75,67,62,30.14,30.09,14,2,15,0.00
2012-4-17,86.0,75.2,64.0,65.7,62.5,58.1,88,66,41,30.15,30.02,15,3,16,0.00
2012-4-18,82.0,75.7,69.0,70.2,66.3,60.5,83,73,57,30.08,29.95,17,2,18,0.00
2012-4-19,81.0,74.5,70.0,72.6,69.6,67.2,92,85,73,29.97,29.86,15,1,16,0.02
2012-4-20,84.0,75.2,69.0,73.5,69.6,65.9,94,83,67,29.92,29.81,12,2,13,0.05
2012-4-21,81.0,69.4,67.0,70.8,66.3,64.3,93,90,68,29.89,29.59,15,3,19,1.31
2012-4-22,79.0,69.1,61.0,69.2,62.8,53.5,95,81,54,29.77,29.54,24,3,24,1.09
2012-4-23,74.0,69.5,64.0,54.9,51.3,46.7,61,53,44,29.93,29.76,17,4,20,0.00
2012-4-24,73.0,65.2,56.0,49.4,45.1,35.7,60,49,35,30.04,29.90,14,2,14,0.00
2012-4-25,80.0,65.9,52.0,58.4,52.4,47.0,88,64,36,30.12,30.02,9,1,11,0.00
2012-4-26,80.0,69.8,57.0,66.2,61.1,54.4,92,75,55,30.15,30.05,11,1,12,0.00
2012-4-27,86.0,73.2,61.0,67.1,63.4,58.7,93,73,47,30.12,30.03,12,1,13,0.00
2012-4-28,87.0,76.2,67.0,73.6,68.8,63.0,91,79,55,30.08,29.99,14,2,14,0.06
2012-4-29,87.0,76.5,68.0,71.7,68.6,65.3,93,78,51,30.07,29.99,18,2,18,0.01
2012-4-30,87.0,77.6,68.0,69.6,67.1,64.9,91,72,49,30.08,29.97,27,5,27,0.00
2012-5-1,89.0,78.2,70.0,73.5,69.1,66.6,90,75,53,30.06,29.93,22,4,22,0.07
2012-5-2,90.0,79.1,70.0,73.3,69.8,65.4,92,75,47,30.07,29.97,17,3,19,0.00
2012-5-3,88.0,78.0,70.0,71.9,69.4,66.9,91,76,56,30.08,30.00,15,3,15,0.00
2012-5-4,88.0,78.0,72.0,72.3,70.2,67.9,88,78,58,30.08,29.97,10,2,12,0.00
2012-5-5,86.0,77.3,68.0,73.6,70.2,64.6,92,80,63,30.02,29.92,12,2,13,0.00
2012-5-6,85.0,77.3,69.0,73.2,69.9,66.6,94,79,61,29.98,29.89,14,2,17,0.00
2012-5-7,85.0,77.1,70.0,72.7,69.5,66.6,91,78,62,29.92,29.85,12,2,14,0.00
2012-5-8,86.0,77.2,67.0,73.4,69.8,64.3,92,79,64,29.91,29.83,11,2,14,0.00
2012-5-9,85.0,78.6,71.0,75.0,72.0,68.2,92,81,68,29.89,29.78,15,2,15,0.00
2012-5-10,87.0,79.0,73.0,73.1,68.6,58.7,87,71,49,29.91,29.77,13,2,13,0.00
2012-5-11,93.0,77.9,64.0,72.8,65.7,60.7,90,68,38,30.09,29.90,17,2,18,0.00
2012-5-12,92.0,79.1,70.0,74.8,67.0,61.0,83,67,44,30.13,30.04,17,4,18,0.00
2012-5-13,87.0,76.3,71.0,71.9,66.4,63.0,80,72,51,30.12,30.00,14,3,14,0.00
2012-5-14,78.0,78.0,78.0,71.3,71.3,71.3,80,80,80,30.05,30.05,0,0,0,0.00
2012-5-15,87.0,80.4,76.0,75.0,72.2,71.1,86,76,63,30.05,29.93,13,1,13,0.00
2012-5-16,84.0,74.6,69.0,74.7,70.1,66.6,93,86,67,30.01,29.89,11,1,11,0.78
2012-5-17,86.0,76.8,70.0,73.5,70.1,66.9,95,81,61,29.94,29.86,11,2,12,0.34
2012-5-18,87.0,78.7,69.0,72.7,70.0,65.7,94,76,51,29.93,29.86,12,1,13,0.00
2012-5-19,92.0,78.7,71.0,73.2,69.9,67.0,92,76,48,29.98,29.86,19,2,19,0.01
2012-5-20,91.0,78.5,69.0,71.4,66.7,59.5,89,69,42,29.98,29.89,13,2,13,0.00
2012-5-21,91.0,79.1,66.0,67.6,63.0,47.9,89,61,24,30.00,29.90,11,1,12,0.00
2012-5-22,88.0,77.5,65.0,70.9,66.6,58.1,92,71,40,29.96,29.86,11,1,11,0.00
2012-5-23,93.0,78.8,67.0,72.5,67.9,57.8,93,72,33,29.92,29.80,11,1,11,0.00
2012-5-24,95.0,80.7,70.0,77.9,72.1,66.6,93,77,51,29.91,29.79,17,2,20,1.31
2012-5-25,94.0,77.4,0.0,78.4,69.4,0.0,94,73,54,30.03,29.89,12,1,12,0.00
2012-5-26,94.0,82.1,72.0,75.5,72.1,68.9,92,73,48,30.05,29.92,10,2,12,0.00
2012-5-27,88.0,81.3,74.0,77.9,73.9,68.6,87,79,65,29.98,29.83,18,3,18,0.00
2012-5-28,87.0,81.3,72.0,78.3,75.7,68.6,93,84,74,29.91,29.81,19,4,20,0.41
2012-5-29,85.0,80.9,79.0,76.9,74.6,73.0,85,81,74,29.95,29.86,15,4,16,0.00
2012-5-30,87.0,81.7,79.0,77.3,75.3,72.8,87,81,71,29.91,29.83,14,4,16,0.00
2012-5-31,88.0,81.7,77.0,76.3,74.4,70.9,90,79,61,29.92,29.85,13,2,13,0.00
2012-6-1,81.0,74.7,72.0,74.7,72.1,70.2,94,92,79,29.93,29.84,13,1,13,0.68
2012-6-2,86.0,78.7,70.0,76.2,72.8,68.2,96,83,68,29.98,29.87,14,2,14,0.00
2012-6-3,89.0,80.1,70.0,74.1,71.3,67.9,95,76,53,30.05,29.93,11,1,12,0.00
2012-6-4,87.0,79.2,70.0,77.3,73.6,67.6,94,83,70,29.99,29.84,13,2,14,0.02
2012-6-5,85.0,79.3,73.0,77.7,74.8,69.9,94,86,75,29.89,29.79,12,2,14,0.43
2012-6-6,85.0,77.9,71.0,79.0,74.2,68.5,94,89,80,29.93,29.82,19,2,19,0.91
2012-6-7,86.0,78.6,72.0,80.2,75.1,69.9,95,89,79,29.95,29.86,15,2,15,1.66
2012-6-8,90.0,78.7,71.0,78.4,73.5,69.2,94,85,67,30.00,29.87,22,1,25,1.01
2012-6-9,91.0,80.4,70.0,79.6,74.8,68.2,94,84,67,30.01,29.87,15,2,15,0.08
2012-6-10,94.0,83.5,76.0,80.4,75.5,71.3,92,78,57,30.12,29.96,16,2,17,0.00
2012-6-11,97.0,84.1,74.0,78.9,74.4,69.9,89,74,51,30.11,30.02,14,2,14,0.00
2012-6-12,91.0,82.6,74.0,78.1,73.7,69.2,87,75,60,30.07,29.94,13,2,13,0.00
2012-6-13,91.0,82.8,76.0,78.4,75.4,73.2,92,79,63,29.99,29.88,9,2,14,0.00
2012-6-14,91.0,83.0,75.0,77.9,74.5,69.7,88,76,62,29.99,29.88,13,2,13,0.00
2012-6-15,94.0,80.0,72.0,77.0,71.6,66.7,93,77,54,30.03,29.93,18,1,18,0.00
2012-6-16,91.0,81.9,73.0,72.7,69.4,60.9,90,68,39,30.03,29.95,19,3,19,0.00
2012-6-17,90.0,80.7,71.0,70.5,67.5,63.5,89,66,44,30.05,29.91,15,3,16,0.00
2012-6-18,91.0,80.6,70.0,69.4,66.4,61.6,89,64,39,30.03,29.93,19,3,19,0.00
2012-6-19,88.0,79.0,70.0,70.8,66.8,63.0,86,68,47,30.04,29.96,17,3,18,0.00
2012-6-20,90.0,78.5,74.0,77.3,72.0,68.0,93,81,59,30.02,29.91,23,4,23,0.68
2012-6-21,89.0,77.6,73.0,76.8,73.3,70.8,93,87,62,29.97,29.85,14,2,14,0.24
2012-6-22,87.0,78.1,75.0,78.3,74.2,72.2,94,88,72,29.90,29.81,16,2,16,0.07
2012-6-23,79.0,75.8,74.0,75.8,73.4,71.8,94,92,85,29.93,29.83,14,3,14,0.95
2012-6-24,81.0,77.3,74.0,77.8,75.2,72.2,95,93,87,29.90,29.66,35,6,35,2.88
2012-6-25,86.0,80.0,75.0,79.2,75.8,72.5,94,87,75,29.70,29.61,32,7,32,1.19
2012-6-26,84.0,79.8,77.0,78.6,76.1,73.2,93,89,83,29.68,29.56,27,7,27,0.50
2012-6-27,88.0,80.1,74.0,76.4,74.1,71.8,93,82,67,29.99,29.67,20,2,20,0.08
2012-6-28,92.0,81.7,71.0,74.1,69.6,63.8,90,69,46,30.07,29.98,12,2,12,0.00
2012-6-29,90.0,80.6,70.0,73.3,70.6,66.1,93,73,48,30.05,29.94,10,1,10,0.00
2012-6-30,88.0,82.2,77.0,76.1,73.9,69.2,90,77,58,30.01,29.92,12,2,12,0.00
2012-7-1,90.0,82.0,74.0,78.4,75.1,71.5,94,81,63,30.08,29.96,10,1,10,0.00
2012-7-2,80.0,77.9,76.0,76.4,75.0,73.5,93,91,87,30.06,30.01,0,0,0,0.00
2012-7-3,92.0,87.3,81.0,76.6,74.3,69.1,82,66,49,30.05,29.97,11,1,11,0.00
2012-7-4,95.0,83.5,76.0,77.0,74.3,70.9,92,75,55,30.08,30.00,11,1,11,0.00
2012-7-5,93.0,83.0,74.0,77.5,74.0,69.9,87,75,51,30.06,29.96,11,1,12,0.00
2012-7-6,81.0,77.5,75.0,76.0,73.9,72.2,91,89,85,30.03,29.98,5,0,5,0.00
2012-7-8,81.0,79.3,79.0,75.3,74.5,74.1,86,85,82,30.03,30.01,8,0,8,0.03
2012-7-9,93.0,85.0,78.0,80.3,75.6,70.8,90,74,56,30.04,29.93,13,1,13,0.02
2012-7-10,93.0,80.7,74.0,77.1,73.4,70.5,93,80,55,30.04,29.94,14,1,14,0.04
2012-7-11,91.0,78.0,73.0,78.9,73.1,70.2,93,86,66,30.04,29.94,17,1,18,0.24
2012-7-12,91.0,79.8,73.0,77.3,73.9,70.8,94,83,61,30.02,29.93,11,1,11,0.93
2012-7-13,90.0,78.7,74.0,79.7,74.1,71.5,94,87,65,30.04,29.95,15,2,17,0.39
2012-7-14,93.0,80.3,74.0,79.1,74.5,71.8,94,84,55,30.07,29.98,19,2,19,0.48
2012-7-15,91.0,80.2,74.0,77.1,73.7,71.5,94,82,56,30.10,30.00,12,2,13,0.16
2012-7-16,87.0,78.9,74.0,78.3,74.4,71.8,95,87,69,30.08,29.95,10,1,10,1.04
2012-7-17,84.0,78.7,73.0,77.4,74.3,70.8,95,87,77,30.03,29.94,12,1,13,0.73
2012-7-18,89.0,82.9,77.0,78.3,75.6,72.6,91,79,67,30.10,29.97,9,1,10,0.00
2012-7-19,92.0,83.3,76.0,80.2,77.0,73.5,94,82,67,30.15,30.08,10,1,11,0.00
2012-7-20,95.0,84.5,77.0,79.8,76.9,74.8,94,79,61,30.11,30.01,9,1,9,0.00
2012-7-21,94.0,83.6,75.0,80.4,76.0,70.9,91,79,57,30.10,30.00,17,1,18,0.09
2012-7-22,97.0,79.5,72.0,79.8,74.0,69.5,94,84,52,30.13,29.98,31,2,35,0.72
2012-7-23,90.0,79.5,73.0,79.7,74.4,71.2,94,85,69,30.14,30.07,13,2,14,0.00
2012-7-24,91.0,82.1,75.0,80.4,76.1,72.2,93,83,66,30.12,30.02,9,1,15,0.00
2012-7-25,91.0,84.3,80.0,79.4,77.4,72.8,88,80,64,30.04,29.98,12,2,13,0.00
2012-7-26,91.0,84.4,79.0,79.8,76.9,75.1,90,79,66,30.04,29.95,13,1,13,0.00
2012-7-27,92.0,84.5,78.0,77.5,75.4,71.8,91,75,56,30.08,29.97,13,2,13,0.00
2012-7-28,92.0,84.3,76.0,78.9,75.9,72.1,93,77,58,30.10,30.01,11,1,11,0.00
2012-7-29,91.0,84.3,77.0,78.5,76.0,73.8,91,77,62,30.07,29.98,14,1,14,0.00
2012-7-30,91.0,84.1,78.0,80.0,76.2,74.2,91,78,59,30.04,29.97,14,1,15,0.04
2012-7-31,91.0,83.2,77.0,78.0,75.8,73.8,91,79,61,30.03,29.96,12,2,12,0.00
2012-8-1,90.0,83.9,77.0,79.0,76.6,73.4,93,79,66,30.01,29.92,13,2,14,0.11
2012-8-2,91.0,83.9,77.0,78.4,76.1,72.7,92,78,61,30.00,29.91,12,2,12,0.00
2012-8-3,93.0,82.7,76.0,77.7,74.1,69.0,93,77,53,30.02,29.92,15,2,15,0.00
2012-8-4,96.0,84.5,74.0,78.9,74.2,70.4,92,73,49,30.03,29.95,11,1,13,0.00
2012-8-5,91.0,81.7,76.0,80.1,75.7,72.5,93,82,66,30.07,29.98,13,1,13,0.19
2012-8-6,94.0,79.8,74.0,80.5,75.0,70.5,94,86,60,30.07,29.95,16,2,17,0.52
2012-8-7,92.0,82.0,74.0,80.8,76.5,72.2,94,84,68,30.02,29.94,10,1,11,0.00
2012-8-8,94.0,85.3,79.0,79.4,76.5,73.0,89,76,60,30.04,29.95,11,1,11,0.00
2012-8-9,96.0,85.7,76.0,78.5,75.3,69.7,90,73,48,30.01,29.90,12,1,12,0.00
2012-8-10,92.0,83.8,78.0,79.4,75.4,71.3,91,77,63,29.98,29.90,8,1,12,0.00
2012-8-11,92.0,82.2,75.0,80.6,75.0,71.1,91,80,62,30.01,29.90,12,1,13,0.26
2012-8-12,92.0,81.3,76.0,79.9,75.6,72.5,93,84,63,30.03,29.95,14,1,17,0.03
2012-8-13,93.0,83.1,77.0,80.7,76.6,73.8,93,82,60,30.06,29.98,11,1,11,0.05
2012-8-14,94.0,84.0,76.0,80.1,76.1,72.3,93,78,60,30.03,29.96,14,2,14,0.00
2012-8-15,95.0,83.4,75.0,78.5,75.3,71.3,92,78,56,30.04,29.95,8,1,9,0.00
2012-8-16,88.0,80.6,76.0,79.8,76.5,71.5,92,88,73,30.07,29.98,9,0,10,0.58
2012-8-18,86.0,79.8,74.0,78.3,75.7,71.2,94,88,77,30.00,29.88,13,0,13,0.31
2012-8-19,91.0,83.5,77.0,80.2,77.0,74.2,94,82,66,29.99,29.91,16,2,16,0.04
2012-8-20,92.0,84.0,76.0,81.1,76.9,73.2,94,80,64,30.02,29.88,20,3,20,0.10
2012-8-21,92.0,81.3,72.0,81.9,75.6,70.2,94,84,64,30.09,29.94,18,2,24,1.57
2012-8-22,91.0,78.5,72.0,78.2,73.3,70.2,95,85,63,30.09,29.99,16,2,16,0.00
2012-8-23,95.0,82.0,73.0,77.0,73.5,70.8,93,77,52,30.09,29.99,8,0,9,0.00
2012-8-24,94.0,83.5,74.0,77.5,73.6,70.9,94,74,48,30.04,29.91,16,2,16,0.00
2012-8-25,91.0,82.0,74.0,76.6,72.6,68.6,92,75,56,29.99,29.90,17,3,21,0.00
2012-8-26,84.0,79.0,75.0,77.5,74.7,71.1,94,87,79,29.97,29.75,22,4,22,0.36
2012-8-27,89.0,80.5,76.0,80.4,76.6,73.8,95,88,73,29.83,29.66,27,6,27,1.09
2012-8-28,90.0,83.0,76.0,81.4,78.0,73.2,94,85,73,29.96,29.82,19,4,19,0.24
2012-8-29,90.0,81.9,76.0,81.4,76.8,73.2,94,85,70,29.97,29.89,16,2,17,0.00
2012-8-30,93.0,83.8,77.0,80.1,76.7,73.7,93,80,61,30.09,29.94,11,1,12,0.00
2012-8-31,94.0,84.4,76.0,79.3,75.8,72.3,92,77,54,30.15,30.05,11,1,12,0.00
2012-9-1,94.0,84.6,76.0,79.9,74.7,70.4,94,74,51,30.14,30.01,11,1,13,0.00
2012-9-2,92.0,82.7,73.0,76.4,72.2,67.0,94,73,46,30.07,29.96,16,1,16,0.00
2012-9-3,92.0,82.2,73.0,75.4,71.8,64.4,89,72,43,30.04,29.95,10,1,11,0.00
2012-9-4,91.0,82.2,73.0,76.1,73.8,70.8,94,77,55,30.01,29.93,13,1,13,0.00
2012-9-5,90.0,82.3,75.0,78.0,75.2,72.5,92,80,65,29.98,29.90,12,2,12,0.00
2012-9-6,91.0,81.9,75.0,79.4,75.4,71.9,92,81,65,30.00,29.93,13,2,13,0.00
2012-9-7,90.0,82.1,75.0,78.7,75.4,72.2,93,81,63,29.99,29.89,13,1,13,0.00
2012-9-8,91.0,83.9,77.0,78.0,76.1,73.5,90,78,65,29.96,29.86,19,2,19,0.00
2012-9-9,86.0,82.1,78.0,79.1,77.1,73.5,92,85,79,29.97,29.85,16,3,16,0.04
2012-9-10,90.0,83.2,77.0,79.2,76.3,72.9,93,80,66,30.01,29.91,12,1,14,0.00
2012-9-11,90.0,80.9,75.0,77.7,74.5,71.3,94,82,63,30.11,29.98,20,2,21,0.03
2012-9-12,91.0,80.8,74.0,74.7,71.7,68.2,87,75,55,30.10,30.01,22,3,24,0.00
2012-9-13,88.0,79.3,74.0,75.8,73.2,70.8,91,82,64,30.08,29.98,20,2,23,0.03
2012-9-14,91.0,79.9,75.0,77.5,74.1,71.5,93,83,58,30.04,29.95,20,2,20,0.31
2012-9-15,91.0,80.1,75.0,77.0,74.0,72.5,93,83,61,30.05,29.96,14,2,16,0.16
2012-9-16,90.0,77.7,73.0,77.5,73.2,70.8,94,87,58,30.03,29.95,13,1,13,0.57
2012-9-17,90.0,80.2,73.0,78.7,74.6,71.2,95,84,63,30.00,29.88,16,2,16,0.00
2012-9-18,88.0,79.3,76.0,80.4,75.8,71.5,93,89,74,29.94,29.86,22,2,22,0.25
2012-9-19,87.0,80.8,77.0,77.9,75.5,72.8,93,84,72,30.04,29.89,13,1,13,0.03
2012-9-20,90.0,80.7,75.0,77.4,74.6,71.1,95,83,62,30.02,29.92,10,0,10,0.01
2012-9-21,90.0,79.7,73.0,77.4,73.0,70.5,93,81,61,30.00,29.89,13,0,15,0.14
2012-9-22,92.0,77.0,72.0,77.0,72.1,70.2,95,86,56,30.03,29.92,7,1,8,0.05
2012-9-23,94.0,81.0,72.0,77.3,72.6,67.1,96,78,43,30.07,29.98,10,1,10,0.00
2012-9-24,85.0,77.5,72.0,72.6,63.0,56.1,83,63,41,30.10,29.99,11,1,11,0.00
2012-9-25,88.0,76.7,68.0,70.9,66.8,62.2,85,72,50,30.07,30.00,8,0,9,0.00
2012-9-26,91.0,78.7,72.0,78.1,71.6,67.9,94,80,58,30.09,30.01,10,1,11,0.00
2012-9-27,94.0,81.1,72.0,76.8,72.9,68.9,95,78,51,30.10,29.99,11,1,11,0.00
2012-9-28,93.0,81.0,72.0,76.4,73.5,69.9,94,79,54,30.04,29.92,16,1,16,0.00
2012-9-29,88.0,79.5,74.0,78.3,74.4,71.1,94,85,66,29.97,29.83,11,1,11,0.92
2012-9-30,90.0,80.6,73.0,77.9,74.8,71.2,95,84,62,29.89,29.76,13,1,13,0.00
2012-10-1,88.0,81.3,76.0,78.7,75.6,73.5,93,84,67,29.80,29.72,14,2,16,0.02
2012-10-2,84.0,80.8,76.0,78.8,76.0,73.1,92,85,76,30.01,29.78,16,2,16,0.03
2012-10-3,86.0,76.6,74.0,79.8,73.9,71.8,95,91,80,30.13,29.99,13,1,14,2.02
2012-10-4,93.0,77.3,71.0,81.6,73.5,69.2,95,89,63,30.15,30.05,15,1,16,2.31
2012-10-5,90.0,78.5,72.0,79.7,74.2,69.5,95,87,66,30.11,29.92,13,1,15,0.15
2012-10-6,90.0,79.6,73.0,79.0,74.2,70.5,95,85,65,29.98,29.84,13,0,13,0.01
2012-10-7,91.0,78.7,72.0,77.5,72.4,69.5,95,82,59,29.98,29.88,14,1,14,0.00
2012-10-8,90.0,78.2,73.0,78.4,74.1,70.5,94,88,67,30.01,29.91,9,1,10,0.00
2012-10-9,91.0,79.8,71.0,78.4,73.2,69.2,95,82,58,30.03,29.95,6,0,9,0.00
2012-10-10,90.0,78.8,71.0,75.2,71.2,68.5,93,79,56,30.09,30.00,9,1,11,0.00
2012-10-11,87.0,76.6,67.0,69.5,67.4,64.9,93,75,52,30.15,30.05,14,1,15,0.00
2012-10-12,88.0,76.8,69.0,70.5,66.2,62.3,90,71,52,30.17,30.06,9,1,13,0.00
2012-10-13,87.0,77.1,69.0,69.0,66.2,62.4,86,70,52,30.16,30.04,18,2,18,0.00
2012-10-14,90.0,79.3,71.0,73.2,69.9,66.6,90,74,55,30.10,29.96,15,2,15,0.00
2012-10-15,90.0,79.9,74.0,78.0,73.3,70.5,93,81,62,29.97,29.79,9,1,9,0.00
2012-10-16,89.0,77.6,69.0,74.7,70.2,64.0,95,79,56,29.86,29.77,9,1,9,0.00
2012-10-17,80.0,74.1,70.0,72.4,68.3,63.2,92,83,71,29.89,29.78,6,0,6,0.00
2012-10-18,88.0,77.1,69.0,75.5,71.5,67.2,95,84,61,29.88,29.79,10,1,10,0.00
2012-10-19,87.0,77.4,69.0,75.9,71.5,66.3,95,83,53,29.87,29.80,14,1,14,0.00
2012-10-20,86.0,77.3,69.0,74.1,65.4,55.9,91,68,48,29.95,29.83,13,1,13,0.00
2012-10-21,83.0,72.3,63.0,61.7,56.4,53.0,84,60,37,30.03,29.94,14,1,14,0.00
2012-10-22,74.0,72.9,70.0,65.5,64.8,61.7,77,76,74,30.05,30.02,9,1,11,0.00
2012-10-23,84.0,74.9,67.0,70.2,66.4,62.3,86,76,61,30.04,29.93,17,3,17,0.00
2012-10-24,87.0,77.0,69.0,73.3,67.8,64.3,90,75,51,30.00,29.86,17,2,17,0.00
2012-10-25,83.0,76.3,72.0,73.7,70.1,67.6,91,82,64,29.91,29.76,19,2,19,0.01
2012-10-26,87.0,78.3,73.0,71.8,69.0,64.5,91,75,50,29.79,29.61,16,2,17,0.00
2012-10-27,81.0,75.4,72.0,68.3,66.0,63.6,82,73,62,29.72,29.60,20,4,20,0.00
2012-10-28,76.0,71.4,66.0,68.5,62.1,53.9,83,73,61,29.82,29.69,19,4,19,0.00
2012-10-29,69.0,65.1,61.0,56.3,51.0,44.4,73,61,45,29.89,29.78,17,4,18,0.00
2012-10-30,70.0,64.3,60.0,52.6,48.7,43.7,62,57,46,29.97,29.84,21,5,23,0.00
2012-10-31,75.0,65.9,59.0,58.3,54.2,49.2,91,67,48,30.06,29.96,10,1,10,0.00
2012-11-1,76.0,69.7,61.0,67.5,63.5,58.1,92,81,67,30.04,29.94,11,1,12,0.00
2012-11-2,79.0,66.7,58.0,62.6,58.3,52.3,95,77,40,30.09,30.00,9,1,11,0.00
2012-11-3,82.0,67.9,56.0,68.8,62.5,53.3,95,84,59,30.13,30.04,11,0,12,0.00
2012-11-4,82.0,69.3,61.0,69.2,63.8,53.2,96,84,46,30.11,29.99,8,0,8,0.00
2012-11-5,77.0,69.4,64.0,69.5,64.2,60.4,95,85,64,30.01,29.92,6,0,7,0.00
2012-11-6,75.0,67.0,61.0,69.1,62.2,54.3,95,85,65,29.94,29.82,10,1,10,0.38
2012-11-7,69.0,64.2,61.0,59.1,53.8,47.0,85,69,56,29.98,29.86,15,2,16,0.00
2012-11-8,69.0,59.3,53.0,52.1,45.8,42.1,83,62,40,30.17,29.97,23,1,23,0.00
2012-11-9,76.0,60.9,46.0,53.1,48.5,43.5,92,66,42,30.25,30.14,11,1,12,0.00
2012-11-10,77.0,66.0,54.0,57.0,53.5,49.1,87,66,46,30.29,30.18,13,1,16,0.00
2012-11-11,83.0,69.1,58.0,63.2,59.4,54.5,90,73,46,30.26,30.17,18,2,18,0.00
2012-11-12,84.0,72.6,62.0,68.9,64.5,59.0,92,77,53,30.22,30.11,13,1,14,0.00
2012-11-13,83.0,72.5,65.0,69.6,66.5,62.9,94,82,61,30.16,30.07,9,0,9,0.00
2012-11-14,80.0,69.1,63.0,69.6,64.9,61.2,95,87,69,30.17,30.06,10,1,12,0.00
2012-11-15,75.0,67.3,63.0,66.7,63.4,60.0,95,88,73,30.14,30.05,10,1,11,0.00
2012-11-16,67.0,62.6,60.0,60.3,58.4,56.4,92,86,78,30.17,30.07,9,1,9,0.00
2012-11-17,78.0,66.9,60.0,66.5,61.4,56.7,93,83,66,30.14,30.05,14,2,14,0.00
2012-11-18,75.0,65.3,59.0,64.1,59.9,54.8,93,83,66,30.17,30.08,14,2,14,0.00
2012-11-19,71.0,61.1,53.0,59.9,55.6,50.7,94,83,66,30.17,30.05,12,1,12,0.00
2012-11-20,72.0,63.8,58.0,62.0,58.2,53.8,92,82,69,30.09,29.97,10,1,10,0.00
2012-11-21,74.0,64.1,55.0,60.0,56.5,52.3,95,78,51,30.08,29.99,13,1,13,0.00
2012-11-22,74.0,62.1,51.0,57.1,47.7,40.0,93,63,32,30.18,30.07,17,1,17,0.00
2012-11-23,72.0,58.9,44.0,51.0,44.9,37.9,92,62,37,30.22,30.10,12,1,12,0.00
2012-11-24,74.0,60.0,50.0,62.8,54.1,48.3,95,82,63,30.12,30.02,10,1,11,0.00
2012-11-25,70.0,57.5,45.0,50.2,42.8,37.0,91,61,32,30.17,30.08,10,0,10,0.00
2012-11-26,78.0,62.1,46.0,63.4,53.6,39.8,91,75,57,30.20,30.10,8,0,8,0.00
2012-11-27,80.0,67.4,58.0,68.6,62.6,55.1,94,86,62,30.17,30.08,13,1,13,0.00
2012-11-28,76.0,65.2,57.0,64.6,60.8,54.4,96,86,64,30.25,30.10,13,1,13,0.00
2012-11-29,79.0,65.7,55.0,61.5,57.1,52.4,93,76,49,30.26,30.15,18,2,18,0.00
2012-11-30,79.0,68.3,59.0,61.1,57.8,55.1,88,71,51,30.24,30.13,14,1,14,0.00
2012-12-1,79.0,67.8,57.0,63.6,58.9,53.5,92,75,52,30.23,30.14,13,1,15,0.00
2012-12-2,81.0,69.9,62.0,66.0,61.2,57.6,96,76,47,30.26,30.15,15,2,15,0.00
2012-12-3,81.0,70.3,64.0,66.6,61.5,56.7,93,76,46,30.26,30.15,13,1,13,0.00
2012-12-4,80.0,69.6,61.0,60.8,58.1,51.4,88,69,39,30.27,30.15,14,2,14,0.00
2012-12-5,82.0,67.7,56.0,66.5,60.5,53.7,93,79,50,30.17,30.02,12,1,13,0.00
2012-12-6,81.0,71.1,63.0,65.9,63.4,60.6,93,78,57,30.03,29.90,12,1,12,0.00
2012-12-7,81.0,68.6,62.0,69.0,64.2,60.2,95,87,66,30.00,29.90,10,1,10,0.00
2012-12-8,82.0,70.4,64.0,70.2,66.1,62.2,96,87,64,30.04,29.94,9,1,9,0.00
2012-12-9,81.0,69.5,64.0,71.1,65.7,62.2,96,88,70,30.09,30.00,7,0,8,0.00
2012-12-10,80.0,70.3,63.0,75.8,68.2,61.5,95,93,86,30.02,29.84,23,2,23,0.52
2012-12-11,76.0,71.8,69.0,73.5,70.0,67.5,96,94,88,30.02,29.88,13,1,14,0.02
2012-12-12,83.0,73.2,67.0,73.8,70.1,65.5,96,90,73,30.06,29.97,9,1,10,0.02
2012-12-13,68.0,65.3,64.0,66.5,62.6,61.3,95,91,90,30.12,30.04,7,4,8,0.02
2012-12-14,65.0,65.0,65.0,62.0,62.0,62.0,90,90,90,30.12,30.12,5,5,0,0.02
2012-12-15,65.0,65.0,65.0,62.0,62.0,62.0,90,90,90,30.12,30.12,5,5,0,0.02
2012-12-16,69.0,65.1,63.0,65.9,62.3,61.2,95,91,89,30.12,29.93,5,4,0,0.01
2012-12-17,78.0,69.7,62.0,70.9,66.5,60.2,95,90,77,29.97,29.88,14,1,14,0.00
2012-12-18,79.0,70.1,56.0,73.8,66.6,54.0,96,89,75,30.03,29.88,11,1,11,0.00
2012-12-19,79.0,61.2,48.0,58.9,52.8,46.6,96,77,36,30.10,30.02,9,0,9,0.00
2012-12-20,80.0,67.8,53.0,70.8,63.2,50.2,94,86,70,30.07,29.93,24,2,24,0.13
2012-12-21,69.0,59.5,54.0,67.5,47.5,40.9,95,65,51,30.21,29.97,18,4,24,0.04
2012-12-22,63.0,53.5,42.0,44.7,39.6,32.9,91,61,35,30.30,30.20,12,1,12,0.04
2012-12-23,69.0,52.9,38.0,52.6,42.7,34.5,94,71,36,30.26,30.13,9,0,9,0.00
2012-12-24,69.0,59.3,49.0,60.7,52.2,40.6,92,78,62,30.14,29.96,13,0,13,0.00
2012-12-25,75.0,63.4,56.0,64.1,58.2,53.4,93,84,66,30.01,29.87,14,1,14,0.00
2012-12-26,76.0,66.6,57.0,71.5,62.0,50.9,94,85,75,30.01,29.81,18,3,21,0.05
2012-12-27,63.0,54.5,47.0,51.4,48.0,44.0,93,79,54,30.10,30.00,8,1,8,0.00
2012-12-28,72.0,59.1,44.0,66.5,54.0,42.1,95,84,56,30.09,29.92,10,1,10,0.19
2012-12-29,73.0,66.5,57.0,70.8,62.9,49.5,96,88,76,30.15,29.86,15,3,16,0.44
2012-12-30,58.0,50.3,42.0,49.6,40.8,35.3,85,71,49,30.36,30.15,15,2,15,0.00
2012-12-31,75.0,58.0,46.0,59.7,51.6,42.9,93,81,57,30.33,30.17,13,1,13,0.00
2013-1-1,78.0,65.1,54.0,62.0,58.2,52.0,95,80,57,30.20,30.03,13,1,13,0.00